2024-173G

Last updated on Fri Oct 25 2024 00:02:04 GMT+0000 (Coordinated Universal Time)

1 61233U 24173G 24298.57505659 .00060046 00000+0 22070-2 0 9997 2 61233 97.4017 11.0979 0012406 174.1029 186.0359 15.27610685 4590
UTC large
Height (km)
Speed (km/s)
/
Latitude / Longitude
Inclination (degrees)
Orbital Period (minutes)
Azimuth
Elevation
Range (km)
Doppler Factor

Next 0 passes for location: London (51.5072 / 0.1276)

Sorry there are no passes over London.